User: anonymous
Location: Stigler
(35.2540°N, 95.1230°W)
Time: 06:21:46
(UTC-05:00)
Language:

Cosmos 1805 - Orbit

View from above orbital plane
View from above orbital plane
View from above satellite
View from above satellite

Ground track
Ground track

The orbit data is extracted from the following two-line orbital elements,

1 17191U 86097A   14292.73708921  .00006208  00000-0  40117-3 0   177
2 17191 082.4985 264.0565 0008771 146.4796 213.6989 15.08034000516994
Epoch (UTC): 19 October 2014 17:41:24
Eccentricity: 0.0008771
inclination: 82.4985°
perigee height: 536 km
apogee height: 548 km
right ascension of ascending node: 264.0565°
argument of perigee: 146.4796°
revolutions per day: 15.08034000
mean anomaly at epoch: 213.6989°
orbit number at epoch: 51699

The dashed part of the orbit path shows where the satellite is in the earth's shadow,  

DLR